Location: Chuathbaluk
(61.5726°N, 159.2454°W)
Time: 17:00:03
(UTC+00:00)

ZACube-1 - Pass Details

Date: 26 January 2021
Orbit: 583 x 666 km, 97.6° (Epoch: 04 March)

Event Time Altitude Azimuth Distance (km) Brightness Sun altitude
Rises 03:29:44 0° 193° (SSW) 2,969 ? -7.3°
Reaches altitude 10° 03:32:07 10° 203° (SSW) 2,072 ? -7.6°
Maximum altitude 03:36:12 32° 267° (W) 1,138 ? -8.0°
Drops below altitude 10° 03:40:22 10° 331° (NNW) 2,106 ? -8.5°
Sets 03:42:49 0° 341° (NNW) 3,026 ? -8.7°
